LZ3VG-2 Weather Reports


time (UTC)temp
F
wind
direction
speed
knots
gust
knots
rain 1hr
in
rain 24hr
in
rain mn
in
humidity
%
barometer
mb
20260505070521 59 185 11.3 14.8 0.00 0.00 0.00 57 1016.2
20260505065517 59 186 10.4 14.8 0.00 0.00 0.00 58 1016.2
20260505064535 57 189 10.4 14.8 0.00 0.00 0.00 59 1016.1
20260505063532 57 188 10.4 13.9 0.00 0.00 0.00 60 1016.1
20260505062529 56 189 11.3 14.8 0.00 0.00 0.00 61 1016.1
20260505061526 55 185 10.4 13.9 0.00 0.00 0.00 61 1016.0
20260505060529 54 182 10.4 13.9 0.00 0.00 0.00 62 1016.0
20260505055539 52 192 11.3 13.9 0.00 0.00 0.00 66 1015.8
20260505054516 51 195 11.3 13.9 0.00 0.00 0.00 67 1015.7
20260505053534 52 187 9.6 13.0 0.00 0.00 0.00 65 1015.8
20260505052530 50 193 11.3 13.9 0.00 0.00 0.00 68 1015.7
20260505051527 49 195 13.0 15.6 0.00 0.00 0.00 68 1015.7
20260505050525 49 190 10.4 13.9 0.00 0.00 0.00 68 1015.6
20260505041550 45 196 12.2 17.4 0.00 0.00 0.00 69 1015.5
20260505040527 45 195 12.2 16.5 0.00 0.00 0.00 71 1015.2
20260505035524 44 195 12.2 17.4 0.00 0.00 0.00 74 1015.2
20260505034521 44 190 9.6 13.0 0.00 0.00 0.00 75 1015.3
20260505033518 45 183 9.6 13.9 0.00 0.00 0.00 73 1015.3
20260505032536 45 177 8.7 12.2 0.00 0.00 0.00 69 1015.1
20260505031533 45 187 8.7 12.2 0.00 0.00 0.00 69 1014.9
20260505030530 44 189 8.7 13.0 0.00 0.00 0.00 71 1014.9
20260505025526 43 191 9.6 13.0 0.00 0.00 0.00 76 1014.8
20260505024524 41 190 10.4 13.9 0.00 0.00 0.00 82 1014.9
20260505023521 41 192 11.3 17.4 0.00 0.00 0.00 81 1014.8
20260505022518 41 193 10.4 13.9 0.00 0.00 0.00 79 1014.8
20260505021555 42 197 13.0 18.2 0.00 0.00 0.00 77 1014.9
20260505020532 41 190 11.3 14.8 0.00 0.00 0.00 80 1014.8
20260505015529 41 193 12.2 16.5 0.00 0.00 0.00 82 1014.9
20260505014526 42 198 12.2 17.4 0.00 0.00 0.00 79 1014.9
20260505013603 42 194 12.2 16.5 0.00 0.00 0.00 80 1015.0
20260505012520 42 190 11.3 14.8 0.00 0.00 0.00 80 1015.0
20260505011517 42 187 8.7 12.2 0.00 0.00 0.00 79 1015.0
20260505010535 43 187 10.4 15.6 0.00 0.00 0.00 78 1015.0
20260505005531 43 192 11.3 15.6 0.00 0.00 0.00 76 1015.0
20260505004529 43 190 11.3 14.8 0.00 0.00 0.00 75 1015.0
20260505003526 43 191 12.2 16.5 0.00 0.00 0.00 76 1015.1
20260505002522 43 188 10.4 13.0 0.00 0.00 0.00 76 1015.1
20260505001540 43 183 9.6 12.2 0.00 0.00 0.00 74 1015.1
20260505000517 42 188 9.6 12.2 0.00 0.00 0.00 76 1015.2
20260504235534 42 188 8.7 12.2 0.00 0.00 0.00 77 1015.1
20260504234531 42 193 9.6 13.9 0.00 0.00 0.00 77 1015.3
20260504233549 43 188 9.6 11.3 0.00 0.00 0.00 76 1015.2
20260504232525 44 188 10.4 11.3 0.00 0.00 0.00 73 1015.3
20260504231522 45 185 9.6 10.4 0.00 0.00 0.00 71 1015.3
20260504230520 45 183 9.6 11.3 0.00 0.00 0.00 72 1015.6
20260504225516 45 188 9.6 11.3 0.00 0.00 0.00 71 1015.6
20260504224533 46 186 9.6 11.3 0.00 0.00 0.00 69 1015.6
20260504223530 48 183 9.6 12.2 0.00 0.00 0.00 68 1015.8
20260504222527 48 180 8.7 10.4 0.00 0.00 0.00 66 1015.7
20260504221544 48 187 8.7 10.4 0.00 0.00 0.00 63 1015.9
20260504220521 48 182 7.8 9.6 0.00 0.00 0.00 63 1015.9
20260504215519 49 186 8.7 11.3 0.00 0.00 0.00 63 1016.0
20260504214516 49 198 8.7 13.0 0.00 0.00 0.00 62 1015.9
20260504213533 48 197 9.6 12.2 0.00 0.00 0.00 64 1015.9
20260504212550 49 205 9.6 13.0 0.00 0.00 0.00 61 1016.0
20260504211627 49 196 7.8 10.4 0.00 0.00 0.00 63 1016.0
20260504210524 48 191 7.8 11.3 0.00 0.00 0.00 63 1015.9
20260504205521 49 192 7.8 11.3 0.00 0.00 0.00 62 1015.8
20260504204518 50 195 9.6 13.0 0.00 0.00 0.00 56 1015.9
20260504203535 51 180 7.8 8.7 0.00 0.00 0.00 53 1015.9
20260504202532 52 183 8.7 9.6 0.00 0.00 0.00 51 1015.9
20260504201529 52 189 9.6 10.4 0.00 0.00 0.00 51 1016.0
20260504200546 52 190 9.6 11.3 0.00 0.00 0.00 50 1015.9
20260504195543 53 187 8.7 10.4 0.00 0.00 0.00 50 1015.9
20260504194520 53 189 9.6 11.3 0.00 0.00 0.00 49 1015.9
20260504193517 53 189 9.6 11.3 0.00 0.00 0.00 51 1015.9
20260504192534 53 189 9.6 11.3 0.00 0.00 0.00 51 1015.9
20260504191530 53 196 10.4 13.0 0.00 0.00 0.00 50 1016.0
20260504190528 53 194 11.3 12.2 0.00 0.00 0.00 51 1015.9
20260504185524 54 190 9.6 11.3 0.00 0.00 0.00 52 1016.0
20260504184542 54 183 10.4 11.3 0.00 0.00 0.00 49 1015.9
20260504183518 54 181 9.6 11.3 0.00 0.00 0.00 47 1016.0
20260504182535 55 183 10.4 11.3 0.00 0.00 0.00 47 1016.0
20260504181533 54 182 8.7 10.4 0.00 0.00 0.00 47 1015.7
20260504180530 55 179 8.7 9.6 0.00 0.00 0.00 47 1015.9
20260504175527 55 172 8.7 10.4 0.00 0.00 0.00 48 1015.8
20260504174523 55 180 8.7 9.6 0.00 0.00 0.00 49 1015.7
20260504173521 55 181 8.7 10.4 0.00 0.00 0.00 49 1015.7
20260504172517 55 174 8.7 10.4 0.00 0.00 0.00 48 1015.6
20260504171555 56 165 10.4 13.0 0.00 0.00 0.00 47 1015.5
20260504170532 56 157 10.4 13.9 0.00 0.00 0.00 45 1015.4
20260504150535 59 141 11.3 20.9 0.00 0.00 0.00 46 1014.6
20260504140517 60 148 11.3 18.2 0.00 0.00 0.00 44 1014.5
20260504130519 61 159 7.8 13.0 0.00 0.00 0.00 45 1014.1
20260504110544 64 204 8.7 13.9 0.00 0.00 0.00 38 1014.8
20260504100546 63 238 4.3 9.6 0.00 0.00 0.00 36 1015.1
20260504081531 60 231 7.0 16.5 0.00 0.00 0.00 42 1015.2
20260504080529 60 241 9.6 17.4 0.00 0.00 0.00 42 1015.3